Regional Weather Roundup
Issued by NWS

Home | Current Version | Previous Version | Text Only | Print | Product List | Glossary On
Versions: 1 2 3 4 5 6 7 8 9 10 11 12 13 14 15 16 17 18 19 20 21 22 23 24 25 26 27 28 29 30 31 32 33 34 35 36 37 38 39 40 41 42 43 44 45 46 47 48 49 50
000
ASUS42 KKEY 291310
RWRKEY

FLORIDA REGIONAL WEATHER ROUNDUP FOR THE FLORIDA KEYS
NATIONAL WEATHER SERVICE KEY WEST FLORIDA
900 AM EDT FRI JUL 29 2016

...SOUTH FLORIDA AND THE KEYS...

CITY           SKY/WX    TMP DP  RH WIND       PRES   REMARKS
FORT MYERS     SUNNY     83  77  82 SE5       30.06R HX  92
SW REGIONAL AP SUNNY     83  76  79 E5        30.07R HX  91
NAPLES         SUNNY     84  78  82 E5        30.06R HX  95
MIAMI          MOSUNNY   86  76  71 CALM      30.07R HX  96
WEST KENDALL   SUNNY     87  78  74 CALM      30.07R HX 100
HOMESTEAD      SUNNY     85  79  82 NE5       30.07R HX  97
MARATHON       SUNNY     86  78  77 CALM      30.06R HX  98
BOCA CHICA NAS MOSUNNY   86  77  74 SE6       30.06R HX  97
KEY WEST INTL  MOSUNNY   86  79  79 E6        30.07R HX  99

...INTERNATIONAL WEATHER...

CITY           SKY/WX    TMP DP  RH WIND       PRES   REMARKS
NASSAU BAHAMAS MOSUNNY   88  75  66 NE5       30.09R HX  97
CANCUN MEXICO  PTSUNNY   86  77  74 E7        30.01R HX  97
COZUMEL MEXICO MOSUNNY   77  75  94 E3        29.99R

ADJACENT COASTAL WATERS...

STATION/POSITION TIME  SKY/WX   TEMP    WIND        PRES    WAVE
                                AIR SEA DIR/SP/G            HT/PER
                 (UTC)          (F)     (DEG/KT/KT) (MB)    (FT/S)
PULASKI SHOAL LI 1300            85     120/  8/  9 1017.8R
SAND KEY         1250            84     130/  8/  9 1018.4R
LONG KEY         1300            85 86  360/  1/  2 1018.4R
FOWEY ROCKS      1300            85 85  140/  3/  3 1018.9R

$$



USA.gov is the U.S. government's official web portal to all federal, state and local government web resources and services.